Location: Austin
(30.3000°N, 97.7500°W)
Time: 23:06:44
(UTC-05:00)

Cosmos 968 Rocket - Pass Details

Date: 06 May 2026
Orbit: 735 x 765 km, 74.0° (Epoch: 13 May)

Event Time Altitude Azimuth Distance (km) Brightness Sun altitude
Rises 22:39:30 0° 345° (NNW) 3,232 7.6 -27.9°
Reaches altitude 10° 22:41:53 10° 347° (NNW) 2,304 6.7 -28.3°
Enters shadow 22:46:12 60° 3° (N) 869 3.8 -28.9°
